Location: Ariel
(45.9570°N, 122.5700°W)
Time: 21:32:49
(UTC-07:00)

Tiros 1 - Pass Details

Date: 29 July 2019
Orbit: 630 x 664 km, 48.4° (Epoch: 19 August)

Event Time Altitude Azimuth Distance (km) Brightness Sun altitude
Rises 13:46:58 0° 282° (WNW) 2,991 10.6 62.0°
Reaches altitude 10° 13:49:20 10° 285° (WNW) 2,081 9.9 61.9°
Maximum altitude 13:54:08 71° 10° (N) 703 8.1 61.6°
Drops below altitude 10° 13:58:57 10° 95° (E) 2,081 9.8 61.3°
Sets 14:01:18 0° 97° (E) 2,991 10.5 61.2°
